Regional Weather Roundup
Issued by NWS Goodland, KS

Home | Current Version | Previous Version | Text Only | Print | Product List | Glossary On
Versions: 1 2 3 4 5 6 7 8 9 10 11 12 13 14 15 16 17 18 19 20 21 22 23 24 25 26 27 28 29 30 31 32 33 34 35 36 37 38 39 40 41 42 43 44 45 46 47 48 49 50
000
ASUS43 KGLD 231008
RWRGLD

GOODLAND FORECAST AREA HOURLY WEATHER ROUNDUP
NATIONAL WEATHER SERVICE GOODLAND KS
300 AM MST SUN NOV 23 2014

...OFFICIAL OBSERVATIONS...

CITY           SKY/WX    TMP DP  RH WIND       PRES   REMARKS
GOODLAND KS    CLOUDY    50  31  48 N28G41    29.52R
HILL CITY KS   CLOUDY    47  45  93 CALM      29.45S
IMPERIAL NEB   CLOUDY    47  29  49 NW23G31   29.57R
MCCOOK NEB     CLOUDY    52  28  39 W9        29.49R
AKRON CO       CLOUDY    42  29  59 N22G29    29.63R
BURLINGTON CO  CLOUDY    48  24  39 N22G29    29.53R
LIMON CO       LGT RAIN  42  23  46 N36G44    29.60R
$$

...UNOFFICIAL OBSERVATIONS...

CITY           SKY/WX    TMP DP  RH WIND       PRES   REMARKS
COLBY KS       LGT RAIN  48  34  57 NW21G35   29.50R
GOVE KS          N/A     46  32  58 MISG        N/A
NORTON KS      CLEAR     43  39  87 NW3       29.45R FOG
SHARON SPRINGS   N/A     43  23  45 N13         N/A
TRIBUNE KS     MOCLDY    46  27  46 NW20      29.46R
TRENTON NEB      N/A     52  32  46 NW25        N/A
YUMA CO          N/A     45  32  59 N22         N/A
$$


USA.gov is the U.S. government's official web portal to all federal, state and local government web resources and services.